STARLINK-38368, 100503

Orbit data source: Space-Track

STARLINK-38368, 100503 is a payload satellite owned by SpaceX/Seattle (US) in LEO that was launched on Wed, 26 Aug 2026 UTC launched from the Air Force Western Test Range (AFWTR). Payload-class satellites include a variety of spacecraft equipped with specific instruments for various scientific and technological missions. These include communications satellites like Starlink; space stations such as the ISS; scientific satellites like the Hubble; Earth observation satellites from companies like Planet Labs, Umbra, and HawkEye 360; GPS; miniature CubeSats for education and research; and military/defense satellites.

Loading next visibility...
Identifier
100503, 2026-197B
Orbit
LEO
Country
Flag of USUS
Related business
Manufacturer
SpaceX/Seattle
Mission
Operational spacecraft
Bus & Motor
STARLINK V2MO, Unknown motor
Mass
575 kg wet, ~530 kg dry
Launch date (UTC)
2026-08-26 (2 weeks ago)
Launch vehicle
Unknown
Launch site
Air Force Western Test Range (AFWTR)
Object type
Payload
Rocket body
Debris
Shape & HBR
BOX + PAN, 17.7 m
Radar Cross Section
RCS unknown

Expand to show TLE details & history
Last TLE update: 7 hours ago

TLE from 7 hours ago
0 STARLINK-38368
1 A0503U 26197B   26251.47828768  .00180984  00000-0  10611-2 0  9990
2 A0503  69.9997 155.8222 0003885 267.6139  92.4616 15.77619884  2097
Epoch: 2026-09-08T11:28Z
TLE epoch observation values (Epoch: 2026-09-08T11:28:44.055Z)
Latitude
-0.00002°
Longitude
-3.90549°
Altitude
339.808 km
Speed
7.705 km/s
True Right ascension
10h 23m 17s
True Declination
0° 00' 00"
Sunlit
Object was in daylight at epoch
Visualization orbit readout
Latitude
Unknown
Longitude
Unknown
Altitude
Unknown
Speed
Unknown
Apparent Right ascension
Unknown
Apparent Declination
Unknown
Sunlit
N/A
Visualization observer readout
Local Sidereal Time
10:54:23
Azimuth
Unknown
Elevation
Unknown
Doppler factor
Unknown
Orbital elements
Apogee altitude
337.671 km
Perigee altitude
332.454 km
Semi-major axis
6,713.2 km
Eccentricity
0.00039
Inclination
69.9997°
RAAN
155.8222°
Arg. of periapsis
267.6139°
True anomaly
92.50608°
Mean anomaly
92.4616°
Eccentric anomaly
92.48384°
Mean motion
3.94593 °/min
Orbital period
91.23 mins
BSTAR
0.0010611
Loading maneuver chart data...
Computing Atmospheric mass density...
Loading historical data...
Loading historical data...
Loading historical data...
Loading historical data...
Loading historical data...
Loading historical data...
Loading historical data...

Documentation

Showing up to 5 results
|